Tracking 23611 objects as of 17-Sep-2021
HD Live streaming from Space Station
objects crossing your sky now
Track INSPIRATION-4

DMSP 5D-2 F13 DEB

Track DMSP 5D-2 F13 DEB now!
10-day predictions


NORAD ID: 23595
Int'l Code: 1995-015E
Perigee: 534.8 km
Apogee: 545.6 km
Inclination: 98.7 °
Period: 95.3 minutes
Semi major axis: 6911 km
RCS: 0.1251 m2 (medium)
Launch date: March 24, 1995
Source: United States (US)
Launch site: AIR FORCE WESTERN TEST RANGE (AFWTR)

Note: This is SATELLITE DEBRIS
aabbcc
Your satellite tracking list
Your tracking list is empty




NASA's NSSDC Master Catalog

Two Line Element Set (TLE):
1 23595U 95015E   21260.35706442  .00009931  00000-0  59804-3 0  9997
2 23595  98.6886 103.9972 0007864 131.6397  41.2723 15.11031186404472
Source of the keplerian elements: AFSPC